Regional Weather Roundup
Issued by NWS Goodland, KS

Home | Current Version | Previous Version | Graphics & Text | Print | Product List | Glossary On
Versions: 1 2 3 4 5 6 7 8 9 10 11 12 13 14 15 16 17 18 19 20 21 22 23 24 25 26 27 28 29 30 31 32 33 34 35 36 37 38 39 40 41 42 43 44 45 46 47 48 49 50
000
ASUS43 KGLD 171208
RWRGLD

GOODLAND FORECAST AREA HOURLY WEATHER ROUNDUP
NATIONAL WEATHER SERVICE GOODLAND KS
500 AM MST SUN DEC 17 2017

...OFFICIAL OBSERVATIONS...

CITY           SKY/WX    TMP DP  RH WIND       PRES   REMARKS
GOODLAND KS    CLOUDY    33  31  92 N10       29.97R
HILL CITY KS   CLOUDY    32  30  92 N12       29.95R
IMPERIAL NEB   CLOUDY    34  34 100 N7        29.99R FOG
MCCOOK NEB     CLOUDY    36  31  82 N10       29.99R
AKRON CO       CLOUDY    29  28  96 E5        29.97R
BURLINGTON CO  CLOUDY    32  30  92 N12       29.96R
LIMON CO       CLOUDY    28  27  96 N7        29.96R
$$

...UNOFFICIAL OBSERVATIONS...

CITY           SKY/WX    TMP DP  RH WIND       PRES   REMARKS
COLBY KS       CLOUDY    34  34 100 N9        29.98R
LENORA KS        N/A     29  32 100 N8          N/A
NORTON KS      CLOUDY    30  27  86 N12       29.96
SHARON SPRINGS   N/A     33  29  86 N13G21      N/A
TRENTON NEB      N/A     34  32  92 N7          N/A
KIT CARSON CO    N/A     32  28  84 MISG        N/A
YUMA CO        CLOUDY    30  30 100 N8        29.99R FOG
$$




USA.gov is the U.S. government's official web portal to all federal, state and local government web resources and services.